TimeCST,TemperatureF,Dew PointF,Humidity,Sea Level PressureIn,VisibilityMPH,Wind Direction,Wind SpeedMPH,Gust SpeedMPH,PrecipitationIn,Events,Conditions,WindDirDegrees,DateUTC
12:15 AM,38.3,38.3,100,29.83,0.5,Calm,Calm,-,N/A,Fog,Fog,0,2013-01-28 06:15:00
12:35 AM,37.9,37.9,100,29.83,0.2,Calm,Calm,-,N/A,Fog,Fog,0,2013-01-28 06:35:00
12:55 AM,37.6,37.6,100,29.83,0.2,Calm,Calm,-,N/A,Fog,Fog,0,2013-01-28 06:55:00
1:15 AM,37.4,37.4,100,29.84,0.2,Calm,Calm,-,N/A,Fog,Fog,0,2013-01-28 07:15:00
1:35 AM,37.2,37.2,100,29.84,0.2,Calm,Calm,-,N/A,Fog,Fog,0,2013-01-28 07:35:00
1:55 AM,36.7,36.7,100,29.84,0.2,Calm,Calm,-,N/A,Fog,Fog,0,2013-01-28 07:55:00
2:15 AM,36.5,36.5,100,29.84,0.2,Calm,Calm,-,N/A,Fog,Fog,0,2013-01-28 08:15:00
2:35 AM,36.5,36.5,100,29.84,0.2,Calm,Calm,-,N/A,Fog,Fog,0,2013-01-28 08:35:00
2:55 AM,36.1,36.1,100,29.84,0.2,Calm,Calm,-,N/A,Fog,Fog,0,2013-01-28 08:55:00
3:15 AM,35.8,35.8,100,29.84,0.2,Calm,Calm,-,N/A,Fog,Fog,0,2013-01-28 09:15:00
3:35 AM,35.6,35.6,100,29.84,0.2,Calm,Calm,-,N/A,Fog,Fog,0,2013-01-28 09:35:00
3:55 AM,35.6,35.6,100,29.84,0.2,Calm,Calm,-,N/A,Fog,Fog,0,2013-01-28 09:55:00
4:15 AM,35.6,35.6,100,29.84,0.2,Calm,Calm,-,N/A,Fog,Fog,0,2013-01-28 10:15:00
4:35 AM,35.2,35.2,100,29.84,0.2,Calm,Calm,-,N/A,Fog,Fog,0,2013-01-28 10:35:00
4:55 AM,35.1,35.1,100,29.84,0.2,Calm,Calm,-,0.01,Fog,Fog,0,2013-01-28 10:55:00
5:15 AM,35.1,35.1,100,29.84,0.2,Calm,Calm,-,N/A,Fog,Fog,0,2013-01-28 11:15:00
5:35 AM,35.2,35.2,100,29.84,0.2,Calm,Calm,-,N/A,Fog,Fog,0,2013-01-28 11:35:00
5:55 AM,35.1,35.1,100,29.84,0.2,Calm,Calm,-,N/A,Fog,Fog,0,2013-01-28 11:55:00
6:15 AM,34.9,34.9,100,29.84,0.2,Calm,Calm,-,N/A,Fog,Fog,0,2013-01-28 12:15:00
6:35 AM,34.7,34.7,100,29.84,0.2,Calm,Calm,-,N/A,Fog,Fog,0,2013-01-28 12:35:00
6:55 AM,34.7,34.7,100,29.85,0.2,Calm,Calm,-,N/A,Fog,Fog,0,2013-01-28 12:55:00
7:15 AM,34.3,34.3,100,29.86,0.2,Calm,Calm,-,N/A,Fog,Fog,0,2013-01-28 13:15:00
7:35 AM,34.2,34.2,100,29.86,0.2,Calm,Calm,-,N/A,Fog,Fog,0,2013-01-28 13:35:00
7:55 AM,33.8,33.8,100,29.87,0.2,Calm,Calm,-,N/A,Fog,Fog,0,2013-01-28 13:55:00
8:15 AM,33.8,33.8,100,29.86,0.2,Calm,Calm,-,N/A,Fog,Fog,0,2013-01-28 14:15:00
8:35 AM,33.8,33.8,100,29.85,0.2,Calm,Calm,-,N/A,Snow,Light Snow,0,2013-01-28 14:35:00
8:55 AM,33.8,33.8,100,29.86,0.2,Calm,Calm,-,N/A,Fog,Fog,0,2013-01-28 14:55:00
9:15 AM,34.0,34.0,100,29.84,0.2,East,6.9,-,N/A,Fog,Fog,100,2013-01-28 15:15:00
9:35 AM,34.5,34.5,100,29.83,0.2,Calm,Calm,-,N/A,Fog,Fog,0,2013-01-28 15:35:00
9:55 AM,34.9,34.9,100,29.83,0.2,Calm,Calm,-,N/A,Fog,Fog,0,2013-01-28 15:55:00
10:15 AM,35.6,35.6,100,29.84,0.2,Calm,Calm,-,N/A,Fog,Fog,0,2013-01-28 16:15:00
10:35 AM,36.5,36.5,100,29.83,0.2,Calm,Calm,-,N/A,Fog,Fog,0,2013-01-28 16:35:00
10:55 AM,37.4,37.4,100,29.83,0.5,Calm,Calm,-,N/A,Fog,Fog,0,2013-01-28 16:55:00
11:15 AM,37.4,37.4,100,29.82,1.5,Calm,Calm,-,N/A,,Overcast,0,2013-01-28 17:15:00
11:35 AM,37.9,37.9,100,29.81,0.2,Calm,Calm,-,N/A,Fog,Fog,0,2013-01-28 17:35:00
11:55 AM,38.5,38.5,100,29.80,0.5,Calm,Calm,-,N/A,Fog,Fog,0,2013-01-28 17:55:00
12:15 PM,39.4,39.4,100,29.78,0.2,Calm,Calm,-,N/A,Fog,Fog,0,2013-01-28 18:15:00
12:35 PM,40.5,40.5,100,29.77,0.2,Calm,Calm,-,N/A,Fog,Fog,0,2013-01-28 18:35:00
12:55 PM,41.4,41.4,100,29.75,0.2,SE,3.5,-,N/A,Fog,Fog,130,2013-01-28 18:55:00
1:15 PM,42.3,42.3,100,29.73,0.2,Calm,Calm,-,N/A,Fog,Fog,0,2013-01-28 19:15:00
1:35 PM,43.5,43.5,100,29.72,0.2,Calm,Calm,-,N/A,Fog,Fog,0,2013-01-28 19:35:00
1:55 PM,44.8,44.8,100,29.71,0.2,Calm,Calm,-,N/A,Fog,Fog,0,2013-01-28 19:55:00
2:15 PM,45.5,45.5,100,29.69,0.2,Calm,Calm,-,N/A,Fog,Fog,0,2013-01-28 20:15:00
2:35 PM,46.4,46.4,100,29.69,0.2,Calm,Calm,-,N/A,Fog,Fog,0,2013-01-28 20:35:00
2:55 PM,46.9,46.9,100,29.68,0.2,SE,9.2,-,N/A,Fog,Fog,140,2013-01-28 20:55:00
3:15 PM,47.3,47.3,100,29.67,0.2,Calm,Calm,-,N/A,Fog,Fog,0,2013-01-28 21:15:00
3:35 PM,48.4,48.4,100,29.67,0.2,Calm,Calm,-,N/A,Fog,Fog,0,2013-01-28 21:35:00
3:55 PM,49.1,49.1,100,29.66,0.2,Calm,Calm,-,N/A,Fog,Fog,0,2013-01-28 21:55:00
4:35 PM,49.5,49.5,100,29.64,0.2,Calm,Calm,-,N/A,Fog,Fog,0,2013-01-28 22:35:00
4:55 PM,49.6,49.6,100,29.64,0.2,Calm,Calm,-,N/A,Fog,Fog,0,2013-01-28 22:55:00
5:15 PM,49.5,49.5,100,29.63,0.2,ESE,3.5,-,N/A,Fog,Fog,120,2013-01-28 23:15:00
5:35 PM,49.5,49.5,100,29.63,0.2,Calm,Calm,-,N/A,Fog,Fog,0,2013-01-28 23:35:00
5:55 PM,49.1,49.1,100,29.62,0.2,Calm,Calm,-,N/A,Fog,Fog,0,2013-01-28 23:55:00
6:15 PM,49.1,49.1,100,29.61,0.2,Calm,Calm,-,N/A,Fog,Fog,0,2013-01-29 00:15:00
6:35 PM,48.9,48.9,100,29.61,0.2,Calm,Calm,-,N/A,Fog,Fog,0,2013-01-29 00:35:00
6:55 PM,48.6,48.6,100,29.60,0.2,Calm,Calm,-,N/A,Fog,Fog,0,2013-01-29 00:55:00
7:15 PM,46.8,46.8,100,29.60,0.2,Calm,Calm,-,N/A,,Light Drizzle,0,2013-01-29 01:15:00
7:35 PM,47.5,47.5,100,29.59,0.2,Calm,Calm,-,N/A,Fog,Fog,0,2013-01-29 01:35:00
7:55 PM,46.8,46.8,100,29.59,0.2,Calm,Calm,-,N/A,Fog,Fog,0,2013-01-29 01:55:00
8:15 PM,46.4,46.4,100,29.59,0.2,Calm,Calm,-,N/A,Fog,Fog,0,2013-01-29 02:15:00
8:35 PM,46.4,46.4,100,29.58,0.8,Calm,Calm,-,N/A,,Mist,0,2013-01-29 02:35:00
8:55 PM,46.6,46.6,100,29.58,2.0,Calm,Calm,-,N/A,,Mist,0,2013-01-29 02:55:00
9:15 PM,48.2,48.2,100,29.57,7.0,South,10.4,-,N/A,,Clear,180,2013-01-29 03:15:00
9:35 PM,50.0,50.0,100,29.57,7.0,South,10.4,-,N/A,,Scattered Clouds,190,2013-01-29 03:35:00
9:55 PM,52.0,52.0,100,29.57,10.0,SSW,9.2,-,N/A,,Scattered Clouds,200,2013-01-29 03:55:00
10:15 PM,52.0,52.0,100,29.55,10.0,South,9.2,-,N/A,,Clear,190,2013-01-29 04:15:00
10:35 PM,51.4,51.4,100,29.55,7.0,South,12.7,-,N/A,,Clear,180,2013-01-29 04:35:00
10:55 PM,53.1,53.1,100,29.54,10.0,South,12.7,-,N/A,,Clear,180,2013-01-29 04:55:00
11:15 PM,54.0,54.0,100,29.54,10.0,South,12.7,-,N/A,,Clear,190,2013-01-29 05:15:00
11:35 PM,53.4,53.4,100,29.55,10.0,Calm,Calm,-,N/A,,Clear,0,2013-01-29 05:35:00
11:55 PM,50.5,50.5,100,29.54,5.0,Calm,Calm,-,N/A,,Mostly Cloudy,0,2013-01-29 05:55:00